GFSMW_850_spd_000.txt.gz
Wind_Speed
8 9 9 13 16 15 16 17 16 17 19 16 17 15 15 14 15 12 16 12 11 11 7 5 6 5 6 9 12 13 15 15 13 18 23 23 20 17 19 22 25 30 32
5 4 3 9 15 16 16 18 16 17 19 17 16 15 16 16 20 17 21 22 15 16 11 8 8 7 10 11 10 12 15 16 16 19 21 24 28 15 9 13 13 19 24
5 5 5 8 12 16 17 17 19 19 21 23 19 20 21 24 19 20 19 18 21 19 15 14 13 12 10 10 12 15 18 19 17 18 20 26 21 27 30 29 22 19 18
5 6 6 8 10 15 18 19 18 21 22 24 26 24 24 23 22 19 23 26 24 19 15 15 15 15 13 13 14 15 16 20 24 22 22 25 28 30 32 25 27 29 29
6 9 10 10 13 12 14 19 20 19 23 26 27 29 30 29 27 24 21 19 17 18 14 15 16 21 17 18 20 21 25 25 25 25 25 26 28 28 30 34 27 23 22
9 10 12 12 13 15 15 18 23 25 25 26 29 32 33 32 25 25 25 22 20 18 16 16 19 20 20 21 21 23 23 27 31 33 34 30 29 28 28 32 31 30 28
9 8 14 16 15 15 18 21 23 26 27 28 31 34 36 33 32 30 27 23 22 20 21 18 18 25 25 25 26 27 29 30 33 34 35 34 35 33 34 35 38 37 36
8 16 16 14 15 13 18 21 26 31 31 31 33 33 35 36 28 29 25 23 23 22 25 21 21 22 26 28 27 29 28 28 29 30 30 31 31 31 31 32 34 36 38
13 16 15 15 16 17 21 26 32 34 30 33 35 32 29 30 30 25 22 21 17 9 10 14 17 28 26 26 27 29 29 28 29 31 32 34 34 32 33 36 38 39 39
21 17 16 14 19 26 27 27 30 28 32 30 27 24 26 27 24 20 16 12 16 17 15 18 25 26 28 29 29 29 30 30 31 31 32 32 32 33 33 35 36 34 37
14 14 11 15 18 25 25 33 33 30 31 30 29 28 25 20 18 18 13 18 14 17 21 25 26 27 29 30 30 31 31 33 34 34 34 36 35 38 38 38 38 38 38
17 21 24 25 23 21 28 43 31 30 27 25 23 22 18 15 14 12 11 15 17 21 22 23 25 28 30 31 32 33 34 34 35 36 35 36 36 37 36 36 38 38 40
20 28 33 22 23 30 43 35 31 27 23 17 15 14 13 11 11 15 19 23 15 22 22 25 28 31 32 33 33 33 34 35 36 36 36 36 36 38 39 40 40 39 38
29 30 24 26 26 37 39 29 29 26 19 13 10 10 11 11 14 16 13 15 20 21 26 29 31 32 32 31 31 32 34 34 34 33 34 35 36 36 37 39 40 37 33
26 27 33 34 32 35 32 26 28 23 16 12 12 12 15 19 17 13 13 19 23 28 28 31 31 31 30 31 30 30 32 35 38 41 42 45 48 49 50 49 53 49 43
23 33 31 33 37 32 27 24 23 17 13 13 16 21 14 12 12 14 18 25 26 27 30 29 31 31 30 29 31 34 37 39 41 43 44 45 44 40 39 40 43 50 53
32 31 32 39 31 27 22 27 19 14 16 18 21 11 10 10 14 17 22 24 27 27 29 31 29 29 31 29 30 33 38 41 44 43 42 42 39 37 37 37 36 38 39
37 39 38 30 26 31 31 34 24 13 18 14 9 8 9 12 15 20 24 25 27 29 30 29 28 29 31 35 39 37 31 30 32 33 33 34 34 35 38 39 41 42 41
31 35 28 28 29 30 33 25 17 17 7 9 6 8 11 15 19 22 23 27 29 28 27 27 29 35 37 37 28 24 28 32 34 35 35 35 35 34 32 36 40 41 40
27 25 28 29 36 28 14 6 7 7 8 8 8 10 13 16 19 21 26 27 24 27 28 35 29 34 37 28 26 26 31 35 36 39 35 36 36 35 37 33 35 38 39
25 23 20 33 17 7 5 8 10 11 5 6 10 13 14 17 20 22 24 24 27 29 28 26 33 35 30 30 29 32 34 35 38 37 38 35 34 32 33 33 37 36 32
27 20 27 12 7 6 7 8 6 4 7 15 15 15 16 19 21 21 25 24 26 24 25 33 34 35 30 30 32 32 31 32 33 35 34 34 30 28 26 28 34 35 32
19 26 10 7 8 8 5 6 9 12 16 16 15 19 21 22 20 23 22 23 22 24 31 30 35 34 32 33 34 30 30 28 30 28 25 25 26 24 22 23 26 28 34
25 11 7 7 9 6 5 7 9 14 17 18 19 21 21 20 23 21 19 20 24 25 31 33 31 31 33 35 30 33 30 28 27 23 20 16 15 15 17 19 20 21 25
10 6 7 9 9 6 10 10 13 16 18 19 20 18 19 22 20 17 18 20 21 25 28 27 28 30 33 28 29 28 24 25 21 19 17 16 16 15 13 13 12 9 6
7 7 9 9 6 9 11 13 17 18 20 21 20 20 19 17 18 19 21 21 21 24 23 23 24 27 23 22 24 20 17 21 18 18 21 21 16 19 16 17 8 4 4

GFSMW_850_spd_003.txt.gz
Wind_Speed
10 12 7 12 11 13 14 16 17 19 21 20 21 22 23 24 20 22 24 20 19 17 15 13 8 7 7 10 12 14 14 16 20 21 21 26 26 17 21 15 12 14 19
5 5 5 2 6 10 13 14 15 18 19 20 22 22 22 21 21 19 24 23 24 23 19 19 15 15 13 13 13 9 10 14 15 17 21 23 34 31 15 22 22 18 20
4 2 3 6 9 12 13 14 13 16 19 22 23 25 21 22 24 22 24 27 29 27 25 21 17 15 16 15 10 11 13 15 13 14 21 24 23 33 33 31 30 27 25
9 6 3 3 6 10 10 11 13 17 18 22 26 28 30 30 29 28 27 28 29 28 25 21 20 16 14 9 10 13 15 17 22 25 25 27 29 29 34 31 30 32 28
5 4 3 5 5 7 8 11 14 21 25 25 25 29 31 32 33 27 23 24 23 20 29 23 24 20 17 16 22 21 21 23 26 27 26 27 28 31 33 35 30 29 28
4 2 3 7 12 12 12 14 17 21 24 27 29 30 33 35 34 35 31 31 22 20 24 26 25 23 20 19 16 16 23 24 28 32 33 34 34 34 32 31 30 31 32
6 5 9 7 6 6 7 11 20 25 28 33 33 35 37 37 39 38 38 36 30 25 23 19 14 13 18 20 27 23 30 35 32 30 29 30 31 30 31 33 35 36 37
13 9 8 4 6 4 11 19 21 26 30 32 38 33 30 35 41 40 39 37 33 26 22 22 23 23 22 28 31 30 29 30 31 31 30 29 30 31 31 32 34 37 37
9 9 6 7 5 14 19 21 28 32 34 34 36 38 37 35 31 31 28 21 17 14 14 16 17 21 26 30 20 28 30 31 33 32 31 32 31 31 33 33 34 36 35
10 11 12 18 17 19 24 29 29 33 34 28 33 36 34 24 19 19 16 14 15 14 15 18 27 28 17 21 27 29 30 31 32 33 33 32 32 32 31 31 31 31 34
12 15 21 15 14 19 24 31 35 36 25 30 31 32 31 23 18 15 13 13 18 13 16 25 15 17 22 26 28 31 32 34 34 33 33 34 32 32 31 31 32 34 36
20 21 16 18 25 32 39 39 42 27 27 27 30 28 23 18 13 12 13 13 11 13 20 14 18 23 26 29 32 34 35 35 35 34 33 34 34 36 36 37 39 40 40
21 24 26 29 37 36 38 37 30 25 29 28 28 20 14 12 12 11 10 13 16 21 17 17 22 26 31 33 34 33 33 33 33 34 34 34 34 36 37 38 37 36 36
16 20 27 37 38 36 38 29 27 30 29 24 22 16 9 6 11 13 12 15 14 16 21 24 28 29 32 32 31 32 33 32 32 33 33 34 35 37 38 40 42 42 40
19 30 34 35 37 36 27 26 29 36 28 20 13 9 11 12 13 13 15 13 15 21 25 26 28 32 29 30 29 28 29 33 37 40 40 41 42 44 45 48 52 53 54
30 36 36 35 33 28 25 31 36 30 22 15 16 13 12 15 18 17 14 13 20 24 25 31 29 30 32 27 28 32 34 36 37 41 44 46 49 48 44 42 42 41 40
32 34 32 34 27 22 29 35 36 31 23 20 18 22 24 19 11 7 9 21 25 29 31 31 33 30 28 29 31 33 39 44 45 45 42 34 33 32 33 33 33 35 35
32 31 31 28 24 32 33 37 25 15 15 11 7 7 4 4 4 14 20 24 27 29 32 30 26 27 29 33 36 36 29 28 29 29 30 32 33 32 31 32 33 33 33
26 28 25 24 35 30 31 14 11 10 11 10 2 3 4 12 15 19 22 24 28 30 26 26 29 33 32 34 34 27 25 28 31 32 35 35 34 37 32 32 37 40 41
24 19 25 31 27 23 10 10 14 6 3 5 5 7 14 19 19 20 23 25 26 25 27 27 26 27 35 34 27 24 27 32 34 35 35 36 37 35 35 34 34 36 36
16 24 28 23 16 8 6 8 7 5 6 9 15 20 18 19 20 23 24 23 24 23 21 23 28 33 33 27 25 24 26 28 31 32 34 34 32 31 29 31 32 36 34
24 27 24 12 9 8 5 1 6 10 17 19 19 19 20 21 21 20 21 21 20 21 25 31 33 32 26 26 28 23 24 26 27 30 30 29 25 23 25 27 30 32 32
25 24 9 10 9 7 7 9 13 14 14 19 20 19 19 19 19 22 20 19 20 26 28 32 31 30 30 30 24 24 27 24 26 25 23 21 17 16 17 17 19 21 26
22 9 7 7 7 8 9 12 13 15 18 19 19 19 18 19 19 16 17 19 23 26 29 28 28 30 30 31 24 28 27 23 23 19 18 18 14 14 15 16 17 15 18
11 8 6 8 7 10 12 13 16 18 19 20 20 19 17 16 16 18 18 20 22 19 25 24 25 27 29 24 23 24 20 20 19 18 16 18 13 13 12 10 6 8 13
14 9 9 7 10 11 14 16 17 18 20 21 19 17 15 16 23 21 20 16 18 20 22 17 21 26 20 19 20 18 12 11 17 21 22 19 21 15 15 15 10 5 7

GFSMW_850_spd_006.txt.gz
Wind_Speed
11 4 6 15 14 8 8 10 11 12 15 15 17 19 22 23 25 26 27 24 24 27 24 20 19 19 17 14 14 14 15 13 15 20 22 23 22 25 27 16 17 19 18
10 10 7 5 4 6 7 8 8 10 12 14 16 19 22 25 27 25 23 26 29 29 27 26 26 23 19 18 18 18 15 12 13 17 20 20 33 27 29 32 29 25 26
6 4 1 3 6 7 6 5 5 10 13 15 16 20 24 28 31 33 32 30 29 34 32 32 30 28 24 23 21 21 16 16 13 13 13 17 18 39 33 33 30 27 29
7 5 5 5 6 5 6 7 8 11 14 19 22 25 28 30 31 33 33 31 34 30 32 31 30 26 24 24 21 20 17 16 15 16 16 20 25 32 36 34 33 32 32
5 2 2 2 3 3 4 6 9 13 15 20 24 29 33 39 38 37 36 36 35 36 30 31 34 33 30 24 19 16 18 19 15 15 20 25 30 35 36 38 34 40 33
1 3 3 5 3 1 0 3 5 8 13 20 26 29 33 36 38 39 41 43 40 39 33 31 36 32 30 31 28 27 23 23 23 24 29 33 34 32 34 34 37 34 37
4 5 5 5 4 4 5 8 15 22 28 33 32 37 42 36 33 33 31 39 41 32 32 31 30 27 24 21 19 24 24 24 30 34 27 30 32 31 32 34 37 34 32
3 3 1 5 1 6 12 16 19 25 29 32 37 39 32 34 35 33 32 34 36 27 26 23 20 15 16 22 23 28 33 35 21 25 29 32 33 34 34 34 35 36 33
7 9 9 10 10 13 17 22 26 31 35 38 33 27 31 34 34 30 28 23 27 28 23 16 25 23 23 28 29 22 19 20 25 28 30 31 32 33 33 33 33 34 32
11 8 8 4 9 20 27 32 37 36 34 29 28 29 31 32 31 20 15 18 20 18 14 21 19 22 18 11 13 17 21 26 28 30 32 33 34 33 33 34 33 34 37
10 12 12 13 19 26 29 28 33 30 29 30 31 30 30 29 23 15 13 15 15 13 20 15 14 13 13 15 20 23 26 30 33 33 34 36 34 34 33 33 34 36 36
10 10 16 23 28 30 30 33 31 30 29 31 35 30 28 22 17 14 13 13 11 7 10 11 12 14 18 21 24 28 31 32 33 33 33 34 33 33 34 35 37 39 40
10 15 24 30 31 35 30 31 28 28 28 37 35 28 22 17 15 13 13 13 10 11 9 13 16 19 23 27 28 31 31 31 32 32 33 34 35 36 37 37 37 36 36
15 22 28 33 30 32 31 30 28 29 37 38 33 21 16 13 12 12 11 11 7 12 15 18 21 24 27 28 33 31 32 34 32 32 30 32 33 35 36 37 38 38 40
18 27 30 34 32 31 29 30 27 35 39 38 24 17 15 14 12 9 9 10 13 12 16 22 23 25 30 30 31 33 31 32 35 38 40 42 43 43 44 43 46 46 48
27 32 29 30 31 30 28 25 32 36 32 22 16 13 14 14 16 16 20 8 10 14 20 23 27 29 32 31 28 29 31 34 38 44 46 47 46 44 45 44 40 36 36
31 35 31 29 28 30 28 31 31 24 16 13 12 10 12 12 11 6 5 8 14 20 25 26 30 31 27 27 27 33 36 39 40 37 34 32 30 29 30 31 31 30 31
32 32 29 29 27 29 30 26 13 11 9 6 7 8 8 8 7 9 12 19 23 24 28 29 27 28 28 30 30 33 39 36 32 29 29 31 33 33 33 33 34 33 32
29 24 23 24 31 29 25 14 14 13 8 5 3 5 7 11 19 27 26 23 25 27 26 27 28 27 27 30 36 34 29 28 29 31 33 32 32 32 31 34 36 38 37
19 16 22 28 27 20 15 10 5 5 8 10 15 18 19 15 17 20 22 23 23 24 25 25 23 26 34 33 27 23 23 28 29 29 29 28 29 29 27 28 31 34 37
20 26 30 31 18 14 11 7 2 6 11 16 18 16 19 20 21 20 19 21 22 23 23 25 28 30 26 24 21 21 20 23 28 29 30 30 27 26 27 25 27 31 30
26 32 28 13 15 17 6 3 12 16 13 14 18 19 19 19 19 19 21 19 20 21 26 30 31 26 24 22 23 17 19 21 24 28 28 26 25 25 23 22 23 23 26
31 25 13 11 11 10 12 11 13 11 14 18 19 19 19 18 19 19 18 19 21 24 27 26 29 28 27 28 21 18 21 20 21 24 24 21 25 20 18 18 18 19 22
22 15 11 11 8 11 14 14 14 15 17 17 18 20 20 19 16 16 19 19 21 21 22 27 26 27 30 27 20 25 24 20 17 20 19 17 18 12 14 13 12 12 11
18 19 20 13 10 12 15 16 16 15 16 19 20 19 18 15 15 20 17 16 16 18 23 23 22 26 29 22 23 22 18 16 16 17 22 19 18 15 13 13 9 7 9
20 15 11 10 14 16 18 17 15 15 17 20 20 16 15 15 18 21 18 14 18 19 20 17 20 23 18 18 21 19 13 13 13 12 18 23 19 17 17 17 15 12 10

GFSMW_850_spd_009.txt.gz
Wind_Speed
6 3 7 10 12 13 9 5 5 6 4 6 9 12 15 18 22 23 23 23 24 26 28 28 27 25 24 25 24 23 23 23 20 19 19 21 22 21 23 22 26 21 20
11 10 8 7 5 4 5 5 6 6 7 10 13 16 19 21 24 27 29 30 31 29 29 31 33 32 31 29 29 29 28 26 23 20 19 18 24 27 26 32 28 29 23
11 7 4 2 4 5 5 8 10 11 11 12 15 19 23 26 28 30 34 36 38 38 36 36 38 38 38 37 36 33 31 30 26 23 18 7 9 24 28 31 34 31 33
8 6 4 7 7 7 8 11 12 14 13 16 18 20 24 29 29 31 35 35 36 39 42 41 40 41 41 37 34 33 32 30 28 24 19 15 14 10 21 36 34 37 35
6 4 6 6 7 8 10 12 13 13 13 14 18 26 33 35 38 40 37 34 34 36 41 43 43 42 39 34 33 32 26 24 24 19 16 16 18 23 26 29 37 37 36
1 3 4 5 7 9 11 10 6 6 12 20 27 32 35 39 41 38 33 32 32 32 32 38 43 42 38 29 26 24 26 21 15 16 18 19 19 21 27 31 35 33 38
6 6 9 9 8 7 3 7 13 18 23 28 35 36 39 37 33 34 36 35 32 33 34 30 35 34 27 32 32 20 17 20 17 20 23 28 30 25 26 28 33 34 35
6 8 4 6 1 5 11 17 24 30 35 39 38 33 29 30 32 34 34 34 31 28 23 19 24 23 27 18 15 18 23 26 27 24 15 20 24 25 25 26 28 35 31
6 8 3 3 6 13 21 25 30 32 33 29 28 29 32 33 32 31 31 31 29 24 23 23 22 13 15 19 29 34 31 14 16 19 22 24 25 26 26 27 29 29 31
7 5 5 8 15 22 26 28 28 29 27 28 30 33 39 35 30 29 28 24 19 18 16 13 15 20 23 18 12 11 12 18 21 24 26 29 30 30 30 30 29 30 33
6 9 12 19 24 27 26 24 26 28 26 27 33 37 40 33 31 28 24 18 13 10 12 16 19 10 8 10 14 17 19 22 26 29 30 31 30 31 31 30 30 31 33
14 19 21 23 26 28 26 29 25 31 31 32 36 42 45 31 26 22 16 14 11 17 11 10 8 8 11 14 18 22 24 26 30 29 29 31 32 32 31 31 33 33 34
20 22 22 25 24 26 28 29 30 32 32 37 43 45 36 23 20 19 16 12 11 10 10 13 15 16 17 20 24 26 28 31 31 31 33 33 31 32 31 31 32 32 33
25 23 24 26 25 26 30 32 33 32 36 40 41 35 23 15 16 13 9 8 5 9 13 15 19 23 26 27 28 31 32 34 33 32 31 31 33 36 38 39 41 42 42
23 19 28 31 27 27 31 31 31 34 37 36 29 23 14 10 12 12 13 12 14 14 14 20 23 24 26 28 30 30 28 29 31 33 36 38 40 42 43 44 46 44 44
22 25 31 31 29 30 32 29 33 32 27 19 17 14 10 9 12 16 13 9 14 18 17 21 25 27 29 29 28 28 29 33 37 39 39 41 40 36 33 31 30 29 30
25 29 31 32 29 30 26 32 31 22 13 12 11 10 11 9 11 11 12 14 17 21 21 24 28 30 30 29 29 30 32 35 39 40 38 35 32 31 32 33 32 32 31
24 27 31 29 30 29 34 30 22 16 15 12 7 6 7 8 10 16 23 23 19 22 25 27 27 28 28 27 29 33 37 37 35 32 30 31 32 31 30 30 31 31 32
17 23 28 27 30 34 29 19 15 7 3 6 9 16 19 19 18 18 18 22 23 23 24 26 26 26 29 32 34 31 31 31 30 28 26 27 28 27 26 28 30 32 34
21 22 23 32 34 19 15 19 19 10 9 21 16 18 18 20 21 22 22 21 23 25 24 24 26 29 32 29 26 25 27 28 27 27 27 27 27 28 25 25 29 33 33
20 23 31 29 18 14 18 19 9 9 16 18 17 18 21 21 21 21 22 24 23 23 24 27 29 28 26 25 24 24 21 23 27 27 27 30 29 27 26 27 29 29 27
26 30 26 17 14 16 14 13 10 16 17 17 20 21 20 20 21 22 22 21 23 25 28 29 29 29 25 23 26 20 18 21 22 24 26 30 27 25 27 25 23 23 22
28 26 22 16 15 15 13 14 14 17 19 19 19 20 21 21 21 20 21 23 23 25 26 27 30 32 29 29 24 19 21 22 18 19 22 25 24 24 19 17 18 18 17
27 25 22 22 18 17 11 14 16 15 17 17 19 22 22 21 19 19 22 22 22 25 26 28 30 30 32 30 23 26 27 19 18 21 22 25 18 13 11 13 11 8 7
24 22 22 16 14 11 12 15 14 15 15 17 20 23 22 20 20 20 23 22 21 23 25 27 26 29 31 27 25 26 24 18 20 19 15 19 17 15 13 13 14 12 9
20 20 18 16 16 17 18 18 15 15 16 18 21 23 22 22 22 23 24 20 21 22 22 24 21 24 23 22 24 23 17 16 16 13 14 18 17 18 18 17 16 16 15